Vorticity
7 6 7 7 6 6 5 5 5 5 5 5 6 6 7 7 7 7 6 6 6 6 6 6 7 8 7 7 8 6 7 6 8 8 8 8 10 11 9 11 10 10 6 9 11 5 3
5 6 6 6 6 6 6 5 5 5 6 6 6 7 8 8 8 8 8 8 7 6 7 7 7 7 7 7 9 7 8 6 8 8 8 7 8 8 11 9 12 11 10 7 3 -7 13
6 7 5 6 6 6 5 5 5 5 6 6 7 7 7 7 8 9 10 11 11 8 7 7 7 7 6 4 7 11 6 7 8 7 6 3 2 4 6 6 4 7 6 -5 8 -5 -2
7 6 7 5 6 6 5 5 5 5 6 6 7 7 7 7 7 8 8 9 11 12 9 8 8 8 5 6 10 12 3 7 8 6 5 4 4 3 5 4 5 8 12 7 5 4 7
6 6 7 6 6 6 6 5 5 6 6 7 7 7 7 8 9 8 8 9 10 12 9 8 8 7 12 17 12 12 5 6 7 8 5 4 5 5 5 5 8 16 2 3 8 1 3
6 7 6 7 6 6 6 6 6 6 7 7 7 7 7 8 10 10 8 9 9 9 9 9 8 12 13 -0 13 10 6 6 6 6 7 7 8 7 6 3 1 -1 4 10 2 2 10
7 8 6 7 7 6 6 6 6 6 7 7 7 7 7 8 10 10 9 10 11 12 15 13 -7 -6 3 0 12 5 7 9 4 6 3 5 7 5 3 6 8 5 6 7 5 5 6
7 8 8 7 7 7 6 6 6 7 7 7 7 7 8 8 9 11 9 9 10 7 10 8 8 9 11 5 5 7 5 9 9 7 6 6 4 4 5 11 8 4 6 7 10 12 -2
8 8 8 7 7 7 7 7 7 7 8 8 7 7 7 8 9 10 10 8 7 8 10 9 12 10 11 8 7 4 5 7 8 9 8 7 -6 -2 3 2 11 2 8 7 6 6 4
10 9 8 8 8 7 7 7 7 8 8 8 7 7 7 6 7 9 9 10 8 7 20 16 15 19 21 17 14 8 6 6 7 11 12 22 17 15 13 14 4 0 15 13 4 11 8
10 9 8 8 8 7 7 7 8 8 8 8 8 7 7 6 7 8 9 8 10 11 12 9 14 9 7 11 2 14 22 16 9 6 1 -7 0 5 5 4 8 -1 10 5 7 4 10
9 9 8 8 7 7 7 8 8 8 8 8 9 9 8 8 7 8 8 9 8 20 12 6 5 6 9 14 12 5 3 6 3 3 7 8 8 9 10 11 9 5 5 7 15 17 22
9 9 8 8 8 7 7 7 8 8 9 10 10 11 10 10 9 8 9 10 20 10 7 12 9 10 0 -0 4 5 4 3 3 12 17 19 17 17 13 11 12 8 6 14 15 13 3
9 9 8 8 8 7 7 8 9 9 10 11 12 12 12 11 10 10 11 14 11 4 -0 -4 5 9 9 6 11 13 14 20 20 15 5 15 20 23 17 20 -8 20 5 -11 10 7 1
8 8 8 8 8 7 7 8 7 6 6 6 7 9 11 11 11 12 12 16 -3 5 13 6 1 19 25 24 9 4 10 12 12 21 4 6 14 14 10 9 6 21 9 12 -2 15 11
8 8 8 8 7 7 7 6 6 5 6 6 6 7 8 9 12 11 10 4 -1 -2 -2 1 6 13 2 9 16 8 10 4 6 11 14 13 16 24 14 14 7 2 1 4 11 3 10
8 8 8 8 7 7 7 6 6 6 6 6 6 6 11 7 6 8 9 8 10 11 12 18 11 3 -0 2 6 13 14 3 4 5 8 10 15 -4 6 14 14 16 7 0 1 -2 4
8 8 8 8 8 8 7 7 7 7 7 8 8 10 5 9 11 10 11 11 9 6 7 6 8 11 13 14 17 18 7 5 -0 -3 -1 2 4 6 5 7 6 5 3 14 -3 21 -0
8 8 8 8 8 8 9 8 9 9 10 11 10 9 12 16 11 6 7 7 11 12 9 7 2 -0 -1 2 11 19 16 12 12 12 8 3 4 13 21 27 37 29 24 25 18 3 8
9 8 8 9 10 9 8 8 7 7 9 12 14 14 8 12 16 17 12 5 13 15 17 14 8 7 9 11 13 0 -2 6 -3 -4 -11 -4 9 -10 -42 -42 -34 -9 -1 1 9 19 -0
8 9 11 7 3 7 7 9 14 15 17 12 9 12 6 -6 -2 8 8 -0 6 7 8 9 10 3 3 8 4 8 7 7 6 11 5 11 2 9 5 5 8 7 9 7 3 3 -2
9 7 8 11 10 11 9 8 10 13 16 15 12 12 13 9 10 14 14 10 8 14 12 12 16 15 12 10 5 2 10 14 17 18 18 27 24 8 2 9 24 25 24 14 17 21 18
11 8 5 14 9 8 16 28 26 20 21 25 28 25 28 23 21 20 22 18 13 14 23 11 12 13 14 17 17 16 14 14 9 9 10 3 8 6 31 34 -20 56 68 43 19 17 20
12 13 9 8 15 23 11 7 7 7 11 10 10 12 13 18 12 14 11 13 15 16 14 13 12 10 6 11 11 16 24 23 19 24 28 21 21 24 -1 39 32 21 -26 -23 10 35 18
9 6 20 23 9 5 5 7 8 6 8 6 4 6 6 12 5 7 20 11 7 10 13 12 9 10 9 13 19 33 7 28 11 14 14 16 29 6 -1 1 -25 31 43 16 -6 5 1
24 12 7 6 8 10 10 9 8 8 8 7 6 4 3 7 -4 0 10 1 2 4 6 4 11 3 10 9 15 18 10 6 17 15 13 4 5 3 -0 8 4 -5 -19 -2 27 23 28
8 9 11 12 12 11 11 11 11 10 9 8 8 7 7 8 5 10 4 10 5 -0 3 11 -1 8 19 5 18 16 10 -4 21 6 9 4 8 8 12 1 13 7 12 1 43 -8 -13
7 7 5 4 3 4 4 3 4 6 8 9 9 9 8 8 17 -0 1 13 17 -2 -0 4 17 25 4 31 10 14 13 8 7 -3 -5 4 8 5 34 11 17 16 5 -7 -19 -7 18
6 6 5 3 4 3 3 4 4 4 5 7 8 9 9 12 9 8 13 15 9 -1 4 5 4 10 -8 7 -5 8 -3 -7 5 4 15 12 6 -17 -12 -34 -27 -9 21 15 9 7 11
Height
3130 3131 3131 3130 3132 3131 3132 3131 3131 3132 3132 3132 3131 3131 3131 3130 3130 3130 3129 3129 3128 3127 3127 3126 3126 3126 3127 3127 3127 3126 3125 3124 3124 3124 3123 3123 3122 3122 3122 3121 3121 3121 3121 3121 3122 3122 3121
3129 3130 3131 3131 3131 3131 3132 3131 3131 3131 3131 3131 3130 3130 3130 3129 3127 3127 3126 3125 3125 3125 3125 3125 3124 3124 3125 3125 3125 3124 3124 3123 3123 3123 3123 3123 3122 3122 3121 3121 3121 3120 3120 3121 3121 3120 3120
3128 3129 3130 3130 3130 3130 3131 3131 3130 3130 3130 3129 3129 3128 3127 3126 3125 3124 3123 3123 3122 3122 3122 3122 3122 3122 3122 3123 3123 3122 3122 3122 3122 3122 3122 3122 3122 3122 3121 3121 3120 3120 3120 3119 3119 3118 3118
3127 3128 3128 3129 3129 3129 3130 3129 3129 3129 3129 3128 3127 3126 3125 3124 3123 3122 3121 3120 3120 3120 3120 3119 3119 3120 3119 3119 3120 3120 3119 3120 3120 3121 3121 3120 3120 3120 3120 3120 3119 3118 3118 3117 3116 3116 3115
3126 3127 3127 3127 3128 3128 3128 3128 3127 3127 3127 3126 3125 3124 3123 3122 3121 3120 3119 3118 3118 3117 3117 3117 3117 3117 3117 3116 3116 3116 3117 3118 3118 3119 3118 3118 3118 3118 3118 3117 3117 3116 3115 3115 3114 3113 3112
3125 3125 3125 3125 3126 3126 3126 3126 3126 3125 3125 3124 3123 3123 3122 3121 3119 3118 3117 3116 3115 3115 3114 3114 3114 3116 3114 3114 3113 3114 3114 3115 3116 3116 3116 3116 3116 3115 3115 3114 3114 3114 3113 3111 3111 3111 3108
3122 3124 3123 3123 3124 3124 3124 3124 3124 3123 3123 3122 3122 3121 3120 3119 3117 3116 3115 3114 3115 3114 3111 3112 3111 3111 3111 3111 3111 3111 3112 3113 3113 3114 3113 3113 3114 3113 3112 3111 3111 3110 3110 3109 3108 3106 3105
3120 3123 3122 3121 3122 3122 3122 3122 3122 3122 3121 3120 3120 3119 3118 3116 3115 3114 3112 3111 3110 3111 3109 3107 3107 3107 3107 3108 3108 3108 3110 3111 3110 3110 3110 3112 3110 3110 3109 3108 3108 3107 3106 3105 3104 3103 3102
3117 3120 3119 3119 3120 3120 3120 3120 3120 3120 3119 3118 3118 3117 3115 3114 3113 3112 3110 3109 3108 3107 3106 3104 3102 3102 3104 3105 3104 3106 3107 3107 3107 3107 3107 3107 3108 3106 3106 3105 3104 3104 3103 3102 3102 3099 3098
3115 3117 3117 3117 3118 3118 3118 3118 3118 3118 3117 3116 3115 3115 3113 3113 3113 3110 3109 3107 3106 3105 3103 3102 3099 3099 3099 3100 3101 3101 3102 3105 3104 3104 3104 3104 3103 3102 3102 3101 3101 3100 3098 3098 3097 3096 3095
3113 3114 3115 3115 3116 3116 3116 3116 3116 3115 3115 3114 3113 3112 3111 3110 3110 3109 3108 3106 3105 3104 3104 3100 3098 3098 3097 3099 3098 3098 3099 3099 3100 3100 3102 3100 3099 3098 3098 3098 3097 3096 3095 3094 3093 3092 3091
3111 3112 3112 3113 3113 3114 3114 3114 3114 3113 3112 3111 3111 3110 3109 3108 3107 3107 3105 3104 3104 3105 3098 3097 3096 3096 3096 3096 3096 3096 3097 3098 3098 3097 3096 3096 3094 3094 3093 3093 3092 3092 3091 3090 3088 3087 3087
3109 3110 3110 3111 3112 3112 3112 3112 3112 3111 3110 3109 3108 3107 3106 3105 3105 3104 3103 3103 3104 3100 3098 3096 3095 3095 3095 3094 3094 3093 3094 3094 3094 3093 3091 3090 3089 3089 3088 3088 3087 3087 3088 3087 3088 3087 3082
3107 3108 3109 3109 3110 3110 3110 3110 3109 3109 3108 3107 3105 3104 3103 3102 3102 3101 3101 3102 3100 3096 3094 3094 3093 3092 3092 3091 3090 3090 3089 3089 3088 3088 3087 3086 3085 3083 3083 3083 3084 3083 3085 3084 3089 3084 3077
3104 3105 3106 3107 3107 3107 3108 3107 3107 3106 3105 3104 3103 3102 3101 3100 3099 3098 3098 3097 3095 3094 3093 3092 3091 3089 3088 3087 3088 3087 3086 3085 3084 3084 3086 3082 3081 3079 3079 3079 3082 3080 3080 3081 3079 3077 3077
3102 3103 3104 3105 3105 3105 3105 3105 3104 3104 3103 3102 3101 3100 3099 3097 3096 3095 3095 3094 3092 3092 3091 3089 3088 3088 3086 3086 3086 3085 3084 3082 3081 3080 3080 3079 3078 3076 3075 3076 3076 3076 3077 3076 3077 3079 3074
3100 3101 3102 3103 3103 3103 3103 3103 3102 3101 3100 3099 3098 3097 3096 3094 3093 3092 3091 3090 3089 3088 3087 3087 3085 3084 3084 3083 3082 3082 3081 3080 3078 3077 3076 3076 3075 3072 3072 3071 3071 3071 3070 3071 3072 3069 3065
3098 3099 3100 3100 3101 3101 3100 3100 3099 3098 3097 3096 3095 3094 3092 3090 3091 3088 3086 3086 3086 3084 3084 3083 3082 3081 3080 3080 3079 3079 3078 3077 3075 3074 3074 3073 3070 3067 3067 3066 3066 3065 3064 3065 3066 3062 3059
3096 3097 3098 3098 3098 3099 3098 3097 3096 3095 3094 3093 3091 3089 3087 3086 3085 3084 3083 3083 3082 3081 3080 3079 3078 3078 3077 3076 3077 3074 3073 3072 3072 3072 3070 3069 3067 3065 3062 3063 3061 3060 3060 3061 3060 3059 3052
3095 3096 3096 3096 3096 3095 3095 3093 3092 3090 3089 3088 3087 3086 3084 3082 3082 3081 3080 3079 3078 3076 3076 3075 3075 3074 3073 3073 3072 3071 3070 3069 3069 3068 3067 3066 3062 3062 3059 3060 3058 3056 3057 3057 3056 3051 3047
3093 3094 3095 3094 3093 3093 3091 3089 3088 3086 3085 3085 3083 3082 3080 3079 3078 3078 3077 3077 3075 3073 3073 3072 3070 3070 3070 3069 3068 3066 3065 3065 3064 3062 3061 3060 3054 3054 3051 3052 3049 3046 3046 3046 3044 3041 3039
3092 3093 3092 3092 3091 3090 3089 3087 3085 3082 3080 3079 3078 3078 3076 3075 3074 3074 3072 3072 3072 3070 3070 3068 3067 3066 3065 3064 3063 3060 3059 3058 3055 3054 3054 3052 3047 3044 3039 3042 3040 3033 3034 3032 3030 3029 3025
3091 3092 3092 3091 3090 3089 3087 3085 3083 3080 3078 3076 3074 3074 3073 3072 3070 3071 3070 3068 3068 3066 3065 3064 3063 3061 3060 3059 3056 3054 3051 3049 3049 3046 3046 3045 3043 3043 3032 3034 3032 3025 3022 3022 3023 3023 3021
3091 3091 3091 3090 3089 3088 3087 3086 3084 3082 3080 3078 3076 3075 3073 3071 3071 3070 3069 3066 3065 3064 3063 3061 3059 3057 3056 3052 3050 3047 3044 3042 3041 3039 3038 3037 3039 3040 3031 3032 3029 3020 3019 3018 3018 3017 3016
3091 3092 3091 3089 3088 3088 3087 3085 3084 3082 3080 3079 3077 3075 3073 3071 3071 3069 3066 3065 3064 3062 3061 3058 3056 3054 3051 3049 3045 3042 3039 3038 3036 3034 3034 3033 3033 3034 3032 3028 3020 3018 3015 3014 3012 3012 3011
3092 3091 3090 3090 3089 3088 3086 3085 3083 3081 3080 3078 3077 3075 3073 3072 3070 3068 3066 3064 3062 3060 3059 3056 3053 3050 3047 3044 3042 3039 3036 3035 3033 3031 3030 3030 3030 3032 3029 3027 3021 3012 3012 3010 3009 3006 3005
3092 3092 3091 3091 3090 3088 3086 3085 3083 3082 3080 3078 3075 3073 3071 3069 3068 3066 3064 3062 3060 3058 3055 3052 3048 3046 3043 3041 3038 3036 3033 3032 3029 3026 3025 3025 3023 3023 3021 3021 3013 3008 3006 3006 3007 3007 3001
3094 3093 3092 3091 3089 3088 3086 3084 3082 3080 3078 3076 3074 3072 3070 3067 3066 3063 3061 3058 3055 3054 3051 3048 3045 3041 3038 3036 3034 3031 3028 3026 3024 3021 3020 3020 3019 3016 3014 3014 3009 3003 3003 3003 3000 2995 2993
3094 3093 3092 3090 3089 3087 3085 3083 3082 3079 3077 3074 3071 3068 3066 3064 3062 3059 3056 3053 3051 3048 3045 3041 3040 3037 3034 3031 3028 3025 3023 3021 3019 3017 3014 3015 3014 3012 3010 3003 3000 2999 2996 2993 2990 2987 2985